User: anonymous   Login
Location: Caltech
(34.1382°N, 118.1253°W)
Time: 06:24:05
(UTC-08:00)
Language:

IRS-1A Rocket - Orbit

View from above orbital plane
View from above orbital plane
View from above satellite
View from above satellite

Ground track
Ground track

The orbit data is extracted from the following two-line orbital elements,

1 18961U 88021B   14351.05554721 -.00000279  00000-0 -15409-3 0  8123
2 18961 099.2857 327.4221 0054567 208.1781 198.3103 14.00687917367590
Epoch (UTC): 17 December 2014 01:19:59
Eccentricity: 0.0054567
inclination: 99.2857°
perigee height: 852 km
apogee height: 931 km
right ascension of ascending node: 327.4221°
argument of perigee: 208.1781°
revolutions per day: 14.00687917
mean anomaly at epoch: 198.3103°
orbit number at epoch: 36759

The dashed part of the orbit path shows where the satellite is in the earth's shadow,  

DLR